Gary, IN

4:07 PM CST on February 25, 2018 (GMT -0600)
Gary / Chicago

Weather History for KGYY - June, 2013

Change the Weather History Date:

Monday, June 10, 2013

  Actual Average Record
Temperature  
Mean Temperature 66 °F -  
Max Temperature 73 °F 82 °F 96 °F (1964)
Min Temperature 60 °F 56 °F 36 °F (1972)
Cooling Degree Days 2    
Growing Degree Days 16 (Base 50)    
Moisture  
Dew Point 61 °F    
Average Humidity 85    
Maximum Humidity 94    
Minimum Humidity 46    
Precipitation  
Precipitation 0.00 in - - ()
Sea Level Pressure  
Sea Level Pressure 29.80 in    
Wind  
Wind Speed 3 mph (NNE)    
Max Wind Speed 7 mph    
Max Gust Speed -    
Visibility 5 miles    
Events Fog , Rain    
Averages and records for this station are not official NWS values.
T = Trace of Precipitation, MM = Missing Value Source: NWS Daily Summary

Daily Weather History Graph

Daily Weather History Graph

Search for Another Location

Airport or City:

Trip Planner

Search our weather history database for the weather conditions in past years. The results will help you decide how hot, cold, wet, or windy it might be!

Date:

Astronomy

Jun. 10, 2013 Rise Set
Actual Time 5:15 AM CDT 8:23 PM CDT
Civil Twilight 4:41 AM CDT 8:57 PM CDT
Nautical Twilight 3:57 AM CDT 9:40 PM CDT
Astronomical Twilight 3:05 AM CDT 10:32 PM CDT
Moon 7:04 AM CDT (6/10) 9:48 PM CDT (6/10)
Length of Visible Light 16h 16m
Length of Day
15h 08m
Waxing Crescent, 4% of the Moon is Illuminated
Jun 10
Waxing Crescent
Jun 16
First Quarter
Jun 23
Full
Jun 29
Last Quarter
Jul 8
New

Hourly Weather History & Observations

Time (CDT) Temp. Dew Point Humidity Pressure Visibility Wind Dir Wind Speed Gust Speed Precip Events Conditions
4:45 AM 66.2 °F 62.6 °F 88% 29.77 in 7.0 mi North 6.9 mph - N/A Rain Light Rain
5:45 AM 64.4 °F 62.6 °F 94% 29.77 in 4.0 mi Calm Calm - N/A   Mostly Cloudy
6:45 AM 64.4 °F 62.6 °F 94% 29.77 in 4.0 mi Calm Calm - N/A   Mostly Cloudy
7:15 AM 66.2 °F 64.4 °F 94% 29.77 in 5.0 mi Calm Calm - N/A   Scattered Clouds
7:45 AM 68.0 °F 66.2 °F 94% 29.77 in 7.0 mi Calm Calm - N/A   Scattered Clouds
8:45 AM 69.8 °F 64.4 °F 83% 29.78 in 10.0 mi Calm Calm - N/A   Mostly Cloudy
9:45 AM 71.6 °F 64.4 °F 78% 29.77 in 10.0 mi Calm Calm - N/A   Mostly Cloudy
10:45 AM 73.4 °F 64.4 °F 73% 29.78 in 10.0 mi Variable 4.6 mph - N/A   Mostly Cloudy
11:45 AM 71.6 °F 64.4 °F 78% 29.78 in 7.0 mi Variable 4.6 mph - N/A   Mostly Cloudy
12:45 PM 69.8 °F 64.4 °F 83% 29.79 in 7.0 mi Variable 5.8 mph - N/A   Mostly Cloudy
1:45 PM 68.0 °F 62.6 °F 83% 29.79 in 7.0 mi Variable 4.6 mph - N/A   Mostly Cloudy
2:45 PM 66.2 °F 44.6 °F 46% 29.80 in 7.0 mi Variable 3.5 mph - N/A   Overcast
3:45 PM 66.2 °F 62.6 °F 88% 29.81 in 7.0 mi Calm Calm - N/A   Overcast
4:45 PM 69.8 °F 62.6 °F 78% 29.81 in 7.0 mi North 6.9 mph - N/A   Scattered Clouds
5:45 PM 66.2 °F 60.8 °F 83% 29.82 in 7.0 mi Calm Calm - N/A   Clear
6:00 PM 66.2 °F 60.8 °F 83% 29.82 in 1.0 mi NNE 4.6 mph - N/A   Overcast
6:20 PM 62.6 °F 59.0 °F 88% 29.83 in 0.5 mi NNE 5.8 mph - N/A Fog Fog
6:45 PM 62.6 °F 59.0 °F 88% 29.84 in 0.2 mi NE 4.6 mph - N/A Fog Fog
7:45 PM 60.8 °F 59.0 °F 94% 29.85 in 0.2 mi Calm Calm - N/A Fog Fog
8:45 PM 60.8 °F 59.0 °F 94% 29.85 in 1.0 mi Calm Calm - N/A   Overcast
9:45 PM 60.8 °F 59.0 °F 94% 29.86 in 0.5 mi Calm Calm - N/A Fog Fog